North Windham, CT

4:35 PM EDT on September 28, 2016 (GMT -0400)
Windham

Weather History for KIJD - March, 2012

Change the Weather History Date:

Sunday, March 11, 2012

  Actual Average Record
Temperature  
Mean Temperature 38 °F -  
Max Temperature 54 °F 45 °F 69 °F (1977)
Min Temperature 21 °F 23 °F 4 °F (1953)
Degree Days  
Heating Degree Days 28    
Moisture  
Dew Point 23 °F    
Average Humidity 57    
Maximum Humidity 89    
Minimum Humidity 27    
Precipitation  
Precipitation 0.00 in - - ()
Sea Level Pressure  
Sea Level Pressure 30.41 in    
Wind  
Wind Speed 4 mph (SW)    
Max Wind Speed 14 mph    
Max Gust Speed 28 mph    
Visibility 10 miles    
Events      
Averages and records for this station are not official NWS values.
T = Trace of Precipitation, MM = Missing Value Source: NWS Daily Summary

Daily Weather History Graph

Daily Weather History Graph

Search for Another Location

Airport or City:

Trip Planner

Search our weather history database for the weather conditions in past years. The results will help you decide how hot, cold, wet, or windy it might be!

Date:

Astronomy

Mar. 11, 2012 Rise Set
Actual Time 7:06 AM EDT 6:51 PM EDT
Civil Twilight 6:38 AM EDT 7:19 PM EDT
Nautical Twilight 6:06 AM EDT 7:51 PM EDT
Astronomical Twilight 5:34 AM EDT 8:23 PM EDT
Moon 11:16 PM EDT (3/11) 8:35 AM EDT (3/11)
Length of Visible Light 12h 40m
Length of Day
11h 44m
Waning Gibbous, 85% of the Moon is Illuminated
Mar 11
Waning Gibbous
Mar 14
Last Quarter
Mar 22
New
Mar 30
First Quarter
Apr 6
Full

Hourly Weather History & Observations

Time (EDT) Temp. Windchill Dew Point Humidity Pressure Visibility Wind Dir Wind Speed Gust Speed Precip Events Conditions
12:52 AM 24.1 °F - 19.9 °F 84% 30.53 in 10.0 mi Calm Calm - N/A   Clear
1:52 AM 24.1 °F - 19.0 °F 81% 30.52 in 10.0 mi Calm Calm - N/A   Clear
3:52 AM 21.9 °F - 19.0 °F 89% 30.51 in 10.0 mi Calm Calm - N/A   Clear
4:52 AM 21.9 °F - 19.0 °F 89% 30.51 in 8.0 mi Calm Calm - N/A   Clear
5:52 AM 21.9 °F - 19.0 °F 89% 30.51 in 9.0 mi Calm Calm - N/A   Clear
6:52 AM 21.9 °F - 18.0 °F 85% 30.51 in 9.0 mi Calm Calm - N/A   Clear
8:52 AM 30.9 °F - 25.0 °F 79% 30.51 in 10.0 mi Calm Calm - N/A   Clear
9:52 AM 39.9 °F 32.1 °F 21.0 °F 47% 30.49 in 10.0 mi SW 13.8 mph 19.6 mph N/A   Clear
10:52 AM 45.0 °F 38.9 °F 18.0 °F 34% 30.46 in 10.0 mi SSW 12.7 mph 19.6 mph N/A   Clear
11:52 AM 48.0 °F - 18.0 °F 30% 30.44 in 10.0 mi SSW 12.7 mph 27.6 mph N/A   Clear
12:52 PM 50.0 °F - 19.9 °F 31% 30.41 in 10.0 mi SW 9.2 mph - N/A   Clear
1:52 PM 52.0 °F - 19.9 °F 28% 30.37 in 10.0 mi SW 8.1 mph 18.4 mph N/A   Clear
2:52 PM 53.1 °F - 19.9 °F 27% 30.34 in 10.0 mi SSW 10.4 mph 19.6 mph N/A   Clear
3:52 PM 54.0 °F - 21.0 °F 28% 30.32 in 10.0 mi SW 12.7 mph 19.6 mph N/A   Clear
4:52 PM 54.0 °F - 23.0 °F 30% 30.31 in 10.0 mi SSW 12.7 mph - N/A   Clear
5:52 PM 54.0 °F - 24.1 °F 31% 30.31 in 10.0 mi SW 8.1 mph - N/A   Clear
6:52 PM 50.0 °F - 26.1 °F 39% 30.32 in 10.0 mi SSW 8.1 mph - N/A   Clear
7:52 PM 48.0 °F - 28.9 °F 48% 30.33 in 10.0 mi SSW 5.8 mph - N/A   Clear
8:52 PM 46.0 °F 43.9 °F 30.0 °F 54% 30.33 in 10.0 mi SSW 4.6 mph - N/A   Clear
9:52 PM 44.1 °F 41.5 °F 30.9 °F 60% 30.33 in 10.0 mi SSW 4.6 mph - N/A   Clear
10:52 PM 41.0 °F - 30.0 °F 65% 30.32 in 10.0 mi Calm Calm - N/A   Clear
11:52 PM 35.1 °F - 28.9 °F 78% 30.32 in 10.0 mi Calm Calm - N/A   Clear
12:52 AM 32.0 °F - 27.0 °F 82% 30.32 in 10.0 mi Calm Calm - N/A   Clear